When you browse on this site, cookies collect data to enhance your experience and personalize the content and advertising you see.
Visit our Privacy Policy to learn more. By continuing to use the site, you agree to this use of cookies and data.

Hourly Weather Verhnie Goricy

Today, 15 July, Wednesday

Time Temperature Precipitation Wind Pressure Humidity
00:00 +14°C° 1.2 mm 5 mps 734 mmHg 72%
01:00 +12°C° 1.2 mm 5 mps 734 mmHg 80%
02:00 +10°C° 1.2 mm 5 mps 734 mmHg 88%
03:00 +10°C° 2.4 mm 5 mps 734 mmHg 90%
04:00 +9°C° 2.4 mm 6 mps 734 mmHg 93%
05:00 +9°C° 2.4 mm 6 mps 733 mmHg 95%
06:00 +9°C° 0.4 mm 6 mps 733 mmHg 95%
07:00 +9°C° 0.4 mm 6 mps 733 mmHg 95%
08:00 +9°C° 0.4 mm 6 mps 733 mmHg 95%
09:00 +10°C° 0.5 mm 6 mps 733 mmHg 95%
10:00 +10°C° 0.5 mm 6 mps 733 mmHg 95%
11:00 +10°C° 0.5 mm 6 mps 733 mmHg 95%
12:00 +10°C° 0.4 mm 6 mps 733 mmHg 95%
13:00 +10°C° 0.4 mm 6 mps 733 mmHg 95%
14:00 +10°C° 0.4 mm 6 mps 733 mmHg 95%
15:00 +10°C° 0.1 mm 6 mps 733 mmHg 95%
16:00 +10°C° 0.1 mm 5 mps 733 mmHg 94%
17:00 +12°C° 0.1 mm 5 mps 733 mmHg 93%
18:00 +12°C° 0.1 mm 5 mps 733 mmHg 93%
19:00 +12°C° 0.1 mm 5 mps 733 mmHg 93%
20:00 +12°C° 0.1 mm 5 mps 733 mmHg 93%
21:00 +12°C° 0 mm 5 mps 733 mmHg 93%
22:00 +12°C° 0 mm 4 mps 733 mmHg 93%
23:00 +11°C° 0 mm 4 mps 733 mmHg 93%

Tomorrow, 16 July, Thursday

Time Temperature Precipitation Wind Pressure Humidity
00:00 +11°C° 0 mm 4 mps 733 mmHg 93%
01:00 +11°C° 0 mm 4 mps 733 mmHg 92%
02:00 +12°C° 0 mm 4 mps 733 mmHg 92%
03:00 +12°C° 0.5 mm 4 mps 733 mmHg 93%
04:00 +12°C° 0.5 mm 4 mps 733 mmHg 94%
05:00 +12°C° 0.5 mm 4 mps 732 mmHg 95%
06:00 +12°C° 0.7 mm 4 mps 733 mmHg 95%
07:00 +12°C° 0.7 mm 4 mps 733 mmHg 96%
08:00 +12°C° 0.7 mm 4 mps 733 mmHg 96%
09:00 +12°C° 0.2 mm 4 mps 733 mmHg 96%
10:00 +13°C° 0.2 mm 4 mps 733 mmHg 95%
11:00 +13°C° 0.2 mm 4 mps 734 mmHg 95%
12:00 +14°C° 0 mm 4 mps 734 mmHg 91%
13:00 +15°C° 0 mm 4 mps 734 mmHg 87%
14:00 +17°C° 0 mm 3 mps 734 mmHg 83%
15:00 +17°C° 0 mm 3 mps 735 mmHg 81%
16:00 +16°C° 0 mm 3 mps 735 mmHg 80%
17:00 +16°C° 0 mm 3 mps 735 mmHg 78%
18:00 +16°C° 0 mm 2 mps 735 mmHg 82%
19:00 +15°C° 0 mm 2 mps 735 mmHg 86%
20:00 +14°C° 0 mm 1 mps 735 mmHg 89%
21:00 +13°C° 0 mm 2 mps 735 mmHg 91%
22:00 +13°C° 0 mm 2 mps 735 mmHg 93%
23:00 +12°C° 0 mm 2 mps 736 mmHg 94%

Day after tomorrow, 17 July, Friday

Time Temperature Precipitation Wind Pressure Humidity
00:00 +12°C° 0 mm 2 mps 736 mmHg 94%
01:00 +12°C° 0 mm 2 mps 736 mmHg 94%
02:00 +12°C° 0 mm 2 mps 736 mmHg 94%
03:00 +12°C° 0 mm 2 mps 736 mmHg 94%
04:00 +12°C° 0 mm 2 mps 736 mmHg 94%
05:00 +12°C° 0 mm 2 mps 736 mmHg 94%
06:00 +13°C° 0 mm 3 mps 737 mmHg 89%
07:00 +14°C° 0 mm 3 mps 737 mmHg 84%
08:00 +16°C° 0 mm 3 mps 737 mmHg 79%
09:00 +17°C° 0 mm 3 mps 737 mmHg 76%
10:00 +17°C° 0 mm 2 mps 738 mmHg 72%
11:00 +18°C° 0 mm 2 mps 738 mmHg 69%
12:00 +19°C° 0.1 mm 2 mps 738 mmHg 68%
13:00 +19°C° 0.1 mm 2 mps 738 mmHg 68%
14:00 +20°C° 0.1 mm 2 mps 738 mmHg 67%
15:00 +20°C° 0.1 mm 2 mps 738 mmHg 66%
16:00 +20°C° 0.1 mm 2 mps 738 mmHg 65%
17:00 +20°C° 0.1 mm 2 mps 738 mmHg 64%
18:00 +19°C° 0 mm 2 mps 738 mmHg 71%
19:00 +18°C° 0 mm 1 mps 738 mmHg 79%
20:00 +15°C° 0 mm 1 mps 739 mmHg 87%
21:00 +15°C° 0 mm 1 mps 739 mmHg 88%
22:00 +14°C° 0 mm 1 mps 739 mmHg 90%
23:00 +13°C° 0 mm 1 mps 739 mmHg 92%

18 July, Saturday

Time Temperature Precipitation Wind Pressure Humidity
00:00 +12°C° 0 mm 1 mps 740 mmHg 93%
01:00 +12°C° 0 mm 1 mps 740 mmHg 94%
02:00 +11°C° 0 mm 1 mps 740 mmHg 95%
03:00 +12°C° 0 mm 1 mps 740 mmHg 95%
04:00 +12°C° 0 mm 1 mps 740 mmHg 95%
05:00 +12°C° 0 mm 1 mps 741 mmHg 94%
06:00 +14°C° 0 mm 1 mps 741 mmHg 85%
07:00 +16°C° 0 mm 2 mps 741 mmHg 77%
08:00 +18°C° 0 mm 2 mps 741 mmHg 68%
09:00 +19°C° 0 mm 2 mps 741 mmHg 60%
10:00 +21°C° 0 mm 2 mps 741 mmHg 53%
11:00 +23°C° 0 mm 2 mps 741 mmHg 46%
12:00 +24°C° 0 mm 2 mps 741 mmHg 44%
13:00 +24°C° 0 mm 2 mps 741 mmHg 42%
14:00 +25°C° 0 mm 2 mps 741 mmHg 40%
15:00 +24°C° 0 mm 2 mps 741 mmHg 42%
16:00 +24°C° 0 mm 2 mps 741 mmHg 45%
17:00 +24°C° 0 mm 2 mps 741 mmHg 47%
18:00 +21°C° 0 mm 2 mps 741 mmHg 55%
19:00 +20°C° 0 mm 1 mps 741 mmHg 63%
20:00 +16°C° 0 mm 1 mps 741 mmHg 71%
21:00 +15°C° 0 mm 1 mps 741 mmHg 72%
22:00 +14°C° 0 mm 1 mps 741 mmHg 72%
23:00 +13°C° 0 mm 1 mps 742 mmHg 73%

19 July, Sunday

Time Temperature Precipitation Wind Pressure Humidity
00:00 +13°C° 0 mm 1 mps 742 mmHg 74%
01:00 +11°C° 0 mm 0 mps 742 mmHg 75%
02:00 +11°C° 0 mm 0 mps 742 mmHg 75%
03:00 +11°C° 0 mm 0 mps 742 mmHg 76%
04:00 +12°C° 0 mm 0 mps 742 mmHg 77%
05:00 +12°C° 0 mm 0 mps 742 mmHg 78%
06:00 +15°C° 0 mm 0 mps 742 mmHg 71%
07:00 +18°C° 0 mm 0 mps 742 mmHg 64%
08:00 +20°C° 0 mm 0 mps 742 mmHg 57%
09:00 +22°C° 0 mm 0 mps 742 mmHg 52%
10:00 +23°C° 0 mm 0 mps 742 mmHg 47%
11:00 +27°C° 0 mm 1 mps 742 mmHg 41%
12:00 +27°C° 0 mm 1 mps 742 mmHg 41%
13:00 +27°C° 0 mm 1 mps 742 mmHg 40%
14:00 +28°C° 0 mm 1 mps 741 mmHg 39%
15:00 +27°C° 0 mm 1 mps 741 mmHg 43%
16:00 +26°C° 0 mm 1 mps 741 mmHg 47%
17:00 +25°C° 0 mm 1 mps 741 mmHg 51%
18:00 +23°C° 0 mm 1 mps 740 mmHg 60%
19:00 +21°C° 0 mm 1 mps 740 mmHg 69%
20:00 +19°C° 0 mm 1 mps 740 mmHg 78%
21:00 +18°C° 0 mm 1 mps 740 mmHg 81%
22:00 +16°C° 0 mm 1 mps 740 mmHg 84%
23:00 +15°C° 0 mm 1 mps 740 mmHg 87%

20 July, Monday

Time Temperature Precipitation Wind Pressure Humidity
00:00 +15°C° 0 mm 1 mps 740 mmHg 88%
01:00 +15°C° 0 mm 1 mps 740 mmHg 89%
02:00 +13°C° 0 mm 0 mps 740 mmHg 91%
03:00 +14°C° 0 mm 1 mps 740 mmHg 89%
04:00 +15°C° 0 mm 1 mps 740 mmHg 88%
05:00 +15°C° 0 mm 1 mps 740 mmHg 87%
06:00 +18°C° 0 mm 1 mps 740 mmHg 78%
07:00 +20°C° 0 mm 1 mps 740 mmHg 70%
08:00 +22°C° 0 mm 1 mps 740 mmHg 62%
09:00 +23°C° 0 mm 2 mps 739 mmHg 56%
10:00 +24°C° 0 mm 2 mps 739 mmHg 51%
11:00 +25°C° 0 mm 2 mps 739 mmHg 45%
12:00 +26°C° 0 mm 2 mps 739 mmHg 44%
13:00 +26°C° 0 mm 2 mps 739 mmHg 43%
14:00 +26°C° 0 mm 2 mps 738 mmHg 43%
15:00 +26°C° 0 mm 2 mps 738 mmHg 47%
16:00 +25°C° 0 mm 2 mps 738 mmHg 51%
17:00 +25°C° 0 mm 2 mps 738 mmHg 55%
18:00 +23°C° 0 mm 2 mps 738 mmHg 64%
19:00 +20°C° 0 mm 2 mps 737 mmHg 72%
20:00 +18°C° 0 mm 2 mps 737 mmHg 81%
21:00 +17°C° 0 mm 2 mps 737 mmHg 85%
22:00 +16°C° 0 mm 2 mps 737 mmHg 90%
23:00 +15°C° 0 mm 2 mps 737 mmHg 94%
Show more